+ View the NASA Portal
+ Center for Near-Earth Object Studies
JPL Small-Body Database Browser
Search:
[
help
]
14760 (6595 P-L)
Classification:
Main-belt Asteroid
SPK-ID:
2014760
[
Ephemeris
|
Orbit Diagram
|
Orbital Elements
|
Mission Design
|
Physical Parameters
|
Discovery Circumstances
|
Close-Approach Data
]
[ show orbit diagram ]
Orbital Elements at Epoch 2459200.5 (2020-Dec-17.0) TDB
Reference:
JPL 27
(heliocentric ecliptic J2000)
Element
Value
Uncertainty (1-sigma)
Units
e
.1549722820140494
3.1992e-08
a
2.402527780608802
6.4953e-09
au
q
2.030202567845707
7.6299e-08
au
i
1.320316365410126
3.2798e-06
deg
node
168.4942759090652
0.00016329
deg
peri
102.2240317040483
0.00016368
deg
M
134.2306611238118
1.1612e-05
deg
t
p
2458693.333823143988
(2019-Jul-28.83382314)
4.3923e-05
TDB
period
1360.19462423534
3.72
5.516e-06
1.51e-08
d
yr
n
.2646680067585041
1.0733e-09
deg/d
Q
2.774852993371897
7.5019e-09
au
Orbit Determination Parameters
# obs. used (total)
1724
data-arc span
22045 days (60.36 yr)
first obs. used
1960-09-24
last obs. used
2021-02-01
planetary ephem.
DE441
SB-pert. ephem.
SB441-N16
condition code
0
norm. resid. RMS
.49137
source
ORB
producer
Otto Matic
solution date
2021-Apr-13 00:38:41
Additional Information
Earth MOID
= 1.01272 au
Jupiter MOID
= 2.31586 au
T_jup
= 3.508
[ show covariance matrix ]
[
Ephemeris
|
Orbit Diagram
|
Orbital Elements
|
Mission Design
|
Physical Parameters
|
Discovery Circumstances
|
Close-Approach Data
]
Physical Parameter Table
Parameter
Symbol
Value
Units
Sigma
Reference
Notes
absolute magnitude
H
15.0
n/a
MPO250358
diameter
diameter
3.218
km
0.697
urn:nasa:pds:neowise_diameters_albedos::2.0[mainbelt] (http://adsabs.harvard.edu/abs/2011ApJ...741...68M)
geometric albedo
albedo
0.171
0.068
urn:nasa:pds:neowise_diameters_albedos::2.0[mainbelt] (http://adsabs.harvard.edu/abs/2011ApJ...741...68M)
14760 (6595 P-L)
Discovered 1960-Sep-24 by van Houten, C. J., van Houten-Groeneveld, I., Gehrels, T. at Palomar
Reference:
20000418/Numbers.arc
Last Updated:
2004-04-19
[ show close-approach data ]
Alternate Designations
6595 P-L
= 2000 DG92
[
Ephemeris
|
Orbit Diagram
|
Orbital Elements
|
Mission Design
|
Physical Parameters
|
Discovery Circumstances
|
Close-Approach Data
]
2021-Apr-17 23:13 UT
(server date/time)
Site Manager:
Ryan S. Park
Webmaster
:
Alan B. Chamberlin